Retour au catalogue

ARIANE 42L R/B

ActifHEO
NORAD 26299·ROCKET BODY·🇫🇷 France

Lancé Apr 19, 2000 depuis Guiana Space Centre

Loading…

Prochains Passages (prochaines 24 heures)

TLE

FraisSource: Space-Track

Époque: Sep 14, 2026, 04:45 UTC

1 26299U 00020B   26257.19845036 -.00000061  00000-0 -26049-3 0  9991
2 26299   7.4298 322.2014 5393061 110.0903 313.8411  4.62869036370998

Suivez ARIANE 42L R/B en temps réel avec AllMySat

Download on the App Store